Regional Weather Roundup
Issued by NWS

Home | Current Version | Previous Version | Text Only | Print | Product List | Glossary On
Versions: 1 2 3 4 5 6 7 8 9 10 11 12 13 14 15 16 17 18 19 20 21 22 23 24 25 26 27 28 29 30 31 32 33 34 35 36 37 38 39 40 41 42 43 44 45 46 47 48 49 50
000
ASUS44 KLUB 221110
RWRTX
WEST TEXAS WEATHER ROUNDUP
NATIONAL WEATHER SERVICE LUBBOCK TX
600 AM CDT MON SEP 22 2014

NOTE: "FAIR" INDICATES FEW OR NO CLOUDS BELOW 12,000 FEET WITH NO
SIGNIFICANT WEATHER AND/OR OBSTRUCTIONS TO VISIBILITY.

TXZ004-006>008-010-012-014-016-OKZ002-221200-
TEXAS PANHANDLE/OKLAHOMA PANHANDLE

CITY           SKY/WX    TMP DP  RH WIND       PRES   REMARKS
AMARILLO       CLEAR     58  54  86 SE7       30.31R
BORGER         PTCLDY    63  52  67 NE5       30.30S
CANADIAN       PTCLDY    59  54  82 CALM      30.29R
DALHART        CLOUDY    64  53  67 SE5       30.33S
DUMAS          PTCLDY    58  53  81 E5        30.31F
GUYMON         CLOUDY    61  48  62 SE3       30.30F
HEREFORD       CLOUDY    61  58  91 E6        30.31S
PAMPA          CLOUDY    60  52  75 SE6       30.32R
PERRYTON       CLOUDY    61  46  58 E3        30.31R
$$

TXZ026-029-035-045-048-221200-
SOUTHERN PANHANDLE/SOUTH PLAINS/ROLLING PLAINS

CITY           SKY/WX    TMP DP  RH WIND       PRES   REMARKS
CHILDRESS      CLOUDY    68  56  65 N5        30.26R
SEMINOLE       CLOUDY    66  65  97 CALM      30.25S
LUBBOCK        CLOUDY    65  63  93 E9        30.26S FOG
PLAINVIEW      CLOUDY    63  59  88 E9        30.27R
SNYDER         CLOUDY    67  66  96 NE10      30.22S
$$

TXZ052-054-060>062-072-078-127-140-154-169-221200-
PERMIAN BASIN/CONCHO VALLEY/BIG COUNTRY/EDWARDS PLATEAU

CITY           SKY/WX    TMP DP  RH WIND       PRES   REMARKS
ABILENE        PTCLDY    71  64  78 E9        30.19R
BIG SPRING     CLOUDY    72  69  90 NE12      30.23R
BRADY          CLEAR     70  64  83 CALM      30.15S
BROWNWOOD      CLOUDY    68  64  88 NE7       30.17R
JUNCTION       MOCLDY    67  64  90 CALM      30.15R
MIDLAND        CLOUDY    70  68  93 E7        30.20R
ODESSA         CLOUDY    69  67  93 E8        30.21S
SAN ANGELO     CLOUDY    72  67  84 N3        30.16R
SONORA         MOCLDY    66  63  88 CALM      30.21R
SWEETWATER       N/A     68  68 100 N3        30.24R
WINK           LGT RAIN  69  67  93 SE6       30.18S
$$

TXZ055-058-074-075-080-082-221200-
FAR WEST/SOUTHWEST MOUNTAINS/TRANS PECOS

CITY           SKY/WX    TMP DP  RH WIND       PRES   REMARKS
ALPINE         CLOUDY    67  61  81 E3        30.29R
DRYDEN           N/A     77  70  79 E9        30.14R
EL PASO        CLOUDY    70  65  84 N9        30.16S
FORT STOCKTON  LGT RAIN  69  68  96 E6        30.19R
GUADALUPE PASS LGT RAIN  62  32  32 E26         N/A  VSB 1/4
MARFA          CLOUDY    63  63 100 CALM      30.28R
PECOS          CLOUDY    68  67  94 E10       30.18R
PRESIDIO       CLOUDY    75  65  70 NE9G16    30.13R
$$

TXZ014-016-019-021>030-083-221200
TEXAS TECH WEST TEXAS MESONET/TEXAS PANHANDLE/NORTHERN SOUTH PLAINS

CITY           SKY/WX    TMP DP  RH WIND       PRES   REMARKS
ABERNATHY 5ENE   N/A     63  62  94 E6        30.29R
AMARILLO 9NNE    N/A     61  53  76 CALM      30.30R
AMARILLO 7SSE    N/A     58  55  92 E5        30.32S
AMHERST 1NE      N/A     62  61  97 E6        30.29R
BOOTLEG 11WNW    N/A     60  57  91 E6        30.35S
CANADIAN 6E      N/A     56  53  88 CALM      30.28R
CAPROCK CYN SP   N/A     66  56  69 N2        30.29R
CHILDRESS 2NNE   N/A     64  56  76 N5        30.25R
CLARENDON 2WSW   N/A     64  51  64 NE6       30.29S
CLAUDE 12SW      N/A     60  57  88 E3        30.30S
DIMMITT 2NE      N/A     59  57  91 E6        30.31R
FLOYDADA 2NNE    N/A     63  58  84 NE12      30.27S
FRIONA 2NE       N/A     61  58  91 E7        30.33R
GOODLETT 3W      N/A     65  55  72 NE5       30.23R
HART 3N          N/A     60  57  89 NE5       30.30S
HEREFORD 2NW     N/A     60  55  83 E5        30.31R
MCLEAN 1E        N/A     61  52  73 E2        30.28S
MEMPHIS 1NE      N/A     66  54  65 NE5       30.26S
MULESHOE 2SSW    N/A     62  60  93 E12       30.29S
OLTON 6S         N/A     62  60  90 E8        30.28S
PALO DURO SP     N/A     63  52  68 E5        30.32R
PAMPA 2E         N/A     59  52  78 E2        30.31R
PLAINVIEW 1S     N/A     63  60  90 E10       30.28R
SILVERTON 7ESE   N/A     63  54  72 E9        30.29S
TULIA 2ENE       N/A     58  56  91 E5        30.30R
TURKEY 2WSW      N/A     66  58  77 NE5       30.27R
UMBARGER 3NNE    N/A     59  55  87 E3        30.32R
$$

TXZ033>036-039>041-045>048-221200
TEXAS TECH WEST TEXAS MESONET/SOUTH PLAINS

CITY           SKY/WX    TMP DP  RH WIND       PRES   REMARKS
AIKEN 3WSW       N/A     63  58  85 E9        30.29R
ANTON 6SSW       N/A     63  62  94 E9        30.27S
BROWNFIELD 2S    N/A     65  63  94 E12       30.25S
DENVR CTY 7WNW   N/A     65  63  93 E9        30.25S
GAIL 2ESE        N/A     67  65  93 NE6       30.21S
LAMESA 2SE       N/A     66  65  96 E6        30.23S
LEVELLAND 4S     N/A     64  62  93 NE9       30.27R
LUBBOCK 3WNW     N/A     65  62  90 E7        30.27S
MORTON 1ENE      N/A     63  62  96 E8        30.28S
ODONNELL 1N      N/A     65  63  92 NE13      30.24S
PLAINS 3N        N/A     65  64  95 E10       30.27S
RALLS 1SE        N/A     65  63  94 E9        30.27R
REESE CENTER     N/A     63  62  94 E8        30.27R
SEAGRAVES 1SW    N/A     66  65  96 NE6       30.24S
SEMINOLE 2NNE    N/A     66  64  94 NE8       30.24R
SLATON 2NE       N/A     65  64  97 NE5       30.26R
SNYDER 3E        N/A     67  66  96 NE9       30.21R
SUNDOWN 8SW      N/A     64  63  96 E10       30.27S
TAHOKA 3NNE      N/A     65  64  94 E12       30.25R
WOLFFORTH 6SSW   N/A     65  64  97 E10       30.26S
$$

TXZ031-032-036>038-042>044-221200-
TEXAS TECH WEST TEXAS MESONET/ROLLING PLAINS

CITY           SKY/WX    TMP DP  RH WIND       PRES   REMARKS
ASPERMONT 3NE    N/A     68  65  90 N2        30.21R
FLUVANNA 3WNW    N/A     67  64  90 NE10      30.22S
GRAHAM 5SSW      N/A     66  64  93 NE7       30.24R
GUTHRIE 10WSW    N/A     65  59  81 N6        30.22R
HASKELL 1NW      N/A     69  60  74 NE7       30.19R
JAYTON 1SSE      N/A     68  63  84 NE5       30.22R
KNOX CITY 3NW    N/A     68  59  74 NE5       30.21R
LK A HENRY 1NW   N/A     68  66  93 NE6       30.22R
NORTHFIELD 1S    N/A     66  60  80 NE3       30.26R
ODELL 4ENE       N/A     66  55  67 NE6       30.23R
PADUCAH 10SW     N/A     64  58  81 N6        30.24R
POST 1NE         N/A     67  66  97 NE7       30.24S
RRING SPRGS 3N   N/A     64  59  83 NE7       30.27R
SEYMOUR 3NW      N/A     69  54  58 NE7       30.20R
SPUR 1W          N/A     67  60  78 NE8       30.23R
WEINERT 2NNE     N/A     68  60  77 NE6       30.20R
WHITE RVR 6NE    N/A     67  63  87 NE12      30.24S
$$

TXZ052-054-060>062-072-078-127-140-154-169-221200-
TEXAS TECH WEST TEXAS MESONET/PERMIAN BASIN/
CONCHO VALLEY/BIG COUNTRY/EDWARDS PLATEAU

CITY           SKY/WX    TMP DP  RH WIND       PRES   REMARKS
COYANOSA 2N      N/A     69  68  98 NE3       30.18S
JUNCTION 1SSW    N/A     63  60  90 CALM      30.16R
MERTZON 3NNE     N/A     70  65  82 S1        30.19R
SAN ANGELO 7NW   N/A     71  63  77 NE2       30.17R
STRLNG CT 4WSW   N/A     70  69  97 SW1       30.20S
ST LAWRNCE 5SW   N/A     68  67  96 E3        30.19S
SWEETWATR 11SW   N/A     67  67  98 NE7       30.22R
WALL 1E          N/A     69  65  86 N2        30.17R
$$

TXZ055-058-074-075-080-082-221200-
TEXAS TECH WEST TEXAS MESONET/FAR WEST/SOUTHWEST MOUNTAINS/TRANS PECOS

CITY           SKY/WX    TMP DP  RH WIND       PRES   REMARKS
PRSMN GAP BBNP   N/A     71  67  85 N10       30.15R
GUADLPE MTN NP   N/A     61  60  96 NE8       30.31S
$$


USA.gov is the U.S. government's official web portal to all federal, state and local government web resources and services.